• In France
  • List of Countries
  • For 7 days
  • Water Temperature
  • Satellite Maps
  • Weather Map
  • Weather Widgets
  • user-avatar
    Login

    Hourly Weather Asadabad

    Today, 16 January, Tuesday

    Time Temperature Precipitation Wind Pressure Humidity
    00:00 +5°C° 0 mm 3 mps 657 mmHg 21%
    01:00 +5°C° 0 mm 3 mps 656 mmHg 21%
    02:00 +4°C° 0 mm 3 mps 656 mmHg 21%
    03:00 +4°C° 0 mm 3 mps 656 mmHg 21%
    04:00 +4°C° 0 mm 3 mps 656 mmHg 21%
    05:00 +4°C° 0 mm 3 mps 655 mmHg 21%
    06:00 +4°C° 0 mm 3 mps 655 mmHg 21%
    07:00 +4°C° 0 mm 3 mps 655 mmHg 21%
    08:00 +4°C° 0 mm 3 mps 655 mmHg 21%
    09:00 +8°C° 0 mm 3 mps 656 mmHg 19%
    10:00 +10°C° 0 mm 2 mps 656 mmHg 16%
    11:00 +14°C° 0 mm 1 mps 656 mmHg 14%
    12:00 +14°C° 0 mm 2 mps 656 mmHg 14%
    13:00 +15°C° 0 mm 2 mps 655 mmHg 14%
    14:00 +16°C° 0 mm 2 mps 655 mmHg 14%
    15:00 +14°C° 0 mm 2 mps 655 mmHg 17%
    16:00 +13°C° 0 mm 2 mps 654 mmHg 19%
    17:00 +12°C° 0 mm 1 mps 654 mmHg 22%
    18:00 +10°C° 0 mm 2 mps 654 mmHg 22%
    19:00 +9°C° 0 mm 2 mps 654 mmHg 22%
    20:00 +7°C° 0 mm 3 mps 654 mmHg 23%
    21:00 +7°C° 0 mm 3 mps 654 mmHg 23%
    22:00 +7°C° 0 mm 3 mps 654 mmHg 24%
    23:00 +7°C° 0 mm 3 mps 654 mmHg 24%

    Tomorrow, 17 January, Wednesday

    Time Temperature Precipitation Wind Pressure Humidity
    00:00 +7°C° 0 mm 3 mps 654 mmHg 25%
    01:00 +7°C° 0 mm 3 mps 654 mmHg 25%
    02:00 +7°C° 0 mm 3 mps 654 mmHg 26%
    03:00 +7°C° 0 mm 3 mps 655 mmHg 27%
    04:00 +5°C° 0 mm 3 mps 655 mmHg 28%
    05:00 +5°C° 0 mm 3 mps 655 mmHg 30%
    06:00 +5°C° 0.1 mm 3 mps 655 mmHg 34%
    07:00 +5°C° 0.1 mm 3 mps 656 mmHg 39%
    08:00 +4°C° 0.1 mm 3 mps 657 mmHg 44%
    09:00 +5°C° 0.1 mm 3 mps 657 mmHg 45%
    10:00 +7°C° 0.1 mm 3 mps 658 mmHg 47%
    11:00 +7°C° 0.1 mm 3 mps 658 mmHg 49%
    12:00 +8°C° 0.1 mm 3 mps 658 mmHg 48%
    13:00 +8°C° 0.1 mm 3 mps 658 mmHg 47%
    14:00 +8°C° 0.1 mm 3 mps 658 mmHg 46%
    15:00 +8°C° 0 mm 3 mps 658 mmHg 47%
    16:00 +8°C° 0 mm 2 mps 658 mmHg 48%
    17:00 +7°C° 0 mm 2 mps 658 mmHg 48%
    18:00 +5°C° 0 mm 3 mps 659 mmHg 49%
    19:00 +4°C° 0 mm 3 mps 659 mmHg 50%
    20:00 +3°C° 0 mm 3 mps 660 mmHg 51%
    21:00 +3°C° 0 mm 3 mps 660 mmHg 50%
    22:00 +3°C° 0 mm 3 mps 661 mmHg 49%
    23:00 +3°C° 0 mm 3 mps 661 mmHg 47%

    Day after tomorrow, 18 January, Thursday

    Time Temperature Precipitation Wind Pressure Humidity
    00:00 +3°C° 0 mm 3 mps 661 mmHg 46%
    01:00 +2°C° 0 mm 3 mps 661 mmHg 45%
    02:00 +2°C° 0 mm 3 mps 661 mmHg 44%
    03:00 +2°C° 0 mm 3 mps 661 mmHg 43%
    04:00 +2°C° 0 mm 3 mps 661 mmHg 42%
    05:00 +2°C° 0 mm 3 mps 661 mmHg 40%
    06:00 +2°C° 0 mm 3 mps 661 mmHg 39%
    07:00 +3°C° 0 mm 3 mps 661 mmHg 38%
    08:00 +3°C° 0 mm 3 mps 661 mmHg 37%
    09:00 +5°C° 0 mm 3 mps 661 mmHg 33%
    10:00 +8°C° 0 mm 3 mps 662 mmHg 30%
    11:00 +10°C° 0 mm 2 mps 662 mmHg 26%
    12:00 +12°C° 0 mm 2 mps 661 mmHg 26%
    13:00 +12°C° 0 mm 2 mps 661 mmHg 26%
    14:00 +13°C° 0 mm 2 mps 660 mmHg 27%
    15:00 +12°C° 0 mm 2 mps 660 mmHg 29%
    16:00 +12°C° 0 mm 2 mps 660 mmHg 31%
    17:00 +10°C° 0 mm 2 mps 660 mmHg 33%
    18:00 +9°C° 0 mm 2 mps 660 mmHg 35%
    19:00 +8°C° 0 mm 3 mps 660 mmHg 36%
    20:00 +5°C° 0 mm 3 mps 660 mmHg 38%
    21:00 +5°C° 0 mm 3 mps 660 mmHg 37%
    22:00 +5°C° 0 mm 3 mps 660 mmHg 36%
    23:00 +4°C° 0 mm 3 mps 660 mmHg 35%

    19 January, Friday

    Time Temperature Precipitation Wind Pressure Humidity
    00:00 +4°C° 0 mm 3 mps 660 mmHg 34%
    01:00 +4°C° 0 mm 3 mps 660 mmHg 34%
    02:00 +4°C° 0 mm 3 mps 660 mmHg 33%
    03:00 +4°C° 0 mm 3 mps 659 mmHg 32%
    04:00 +4°C° 0 mm 3 mps 659 mmHg 31%
    05:00 +3°C° 0 mm 3 mps 659 mmHg 31%
    06:00 +3°C° 0 mm 3 mps 659 mmHg 30%
    07:00 +4°C° 0 mm 3 mps 659 mmHg 29%
    08:00 +4°C° 0 mm 3 mps 660 mmHg 28%
    09:00 +7°C° 0 mm 3 mps 660 mmHg 25%
    10:00 +10°C° 0 mm 3 mps 660 mmHg 22%
    11:00 +13°C° 0 mm 2 mps 661 mmHg 19%
    12:00 +14°C° 0 mm 2 mps 660 mmHg 18%
    13:00 +14°C° 0 mm 2 mps 660 mmHg 18%
    14:00 +15°C° 0 mm 2 mps 660 mmHg 18%
    15:00 +14°C° 0 mm 2 mps 660 mmHg 20%
    16:00 +13°C° 0 mm 2 mps 659 mmHg 23%
    17:00 +12°C° 0 mm 2 mps 659 mmHg 26%
    18:00 +10°C° 0 mm 3 mps 660 mmHg 26%
    19:00 +8°C° 0 mm 3 mps 660 mmHg 27%
    20:00 +6°C° 0 mm 4 mps 660 mmHg 28%
    21:00 +6°C° 0 mm 4 mps 660 mmHg 27%
    22:00 +6°C° 0 mm 4 mps 660 mmHg 26%
    23:00 +5°C° 0 mm 4 mps 660 mmHg 25%

    20 January, Saturday

    Time Temperature Precipitation Wind Pressure Humidity
    00:00 +5°C° 0 mm 4 mps 660 mmHg 24%
    01:00 +5°C° 0 mm 4 mps 659 mmHg 23%
    02:00 +5°C° 0 mm 4 mps 659 mmHg 22%
    03:00 +5°C° 0 mm 4 mps 659 mmHg 22%
    04:00 +5°C° 0 mm 4 mps 658 mmHg 21%
    05:00 +4°C° 0 mm 4 mps 658 mmHg 20%
    06:00 +5°C° 0 mm 4 mps 658 mmHg 19%
    07:00 +5°C° 0 mm 4 mps 658 mmHg 19%
    08:00 +5°C° 0 mm 4 mps 658 mmHg 18%
    09:00 +9°C° 0 mm 3 mps 658 mmHg 16%
    10:00 +13°C° 0 mm 2 mps 659 mmHg 15%
    11:00 +16°C° 0 mm 2 mps 659 mmHg 13%
    12:00 +18°C° 0 mm 1 mps 659 mmHg 12%
    13:00 +19°C° 0 mm 1 mps 659 mmHg 11%
    14:00 +19°C° 0 mm 1 mps 658 mmHg 11%
    15:00 +18°C° 0 mm 1 mps 658 mmHg 14%
    16:00 +15°C° 0 mm 1 mps 657 mmHg 18%
    17:00 +14°C° 0 mm 1 mps 657 mmHg 22%
    18:00 +13°C° 0 mm 1 mps 657 mmHg 21%
    19:00 +12°C° 0 mm 2 mps 657 mmHg 20%
    20:00 +10°C° 0 mm 3 mps 657 mmHg 19%
    21:00 +9°C° 0 mm 3 mps 657 mmHg 19%
    22:00 +9°C° 0 mm 3 mps 656 mmHg 19%
    23:00 +9°C° 0 mm 3 mps 656 mmHg 18%

    21 January, Sunday

    Time Temperature Precipitation Wind Pressure Humidity
    00:00 +8°C° 0 mm 3 mps 656 mmHg 17%
    01:00 +8°C° 0 mm 3 mps 656 mmHg 17%
    02:00 +8°C° 0 mm 3 mps 656 mmHg 16%
    03:00 +8°C° 0 mm 3 mps 655 mmHg 15%
    04:00 +7°C° 0 mm 3 mps 655 mmHg 14%
    05:00 +7°C° 0 mm 3 mps 655 mmHg 14%
    06:00 +7°C° 0 mm 3 mps 655 mmHg 14%
    07:00 +7°C° 0 mm 3 mps 656 mmHg 14%
    08:00 +8°C° 0 mm 3 mps 656 mmHg 13%
    09:00 +10°C° 0 mm 3 mps 657 mmHg 12%
    10:00 +14°C° 0 mm 2 mps 657 mmHg 11%
    11:00 +17°C° 0 mm 2 mps 658 mmHg 10%
    12:00 +18°C° 0 mm 2 mps 658 mmHg 10%
    13:00 +19°C° 0 mm 1 mps 658 mmHg 10%
    14:00 +20°C° 0 mm 1 mps 657 mmHg 10%
    15:00 +19°C° 0 mm 1 mps 657 mmHg 13%
    16:00 +16°C° 0 mm 1 mps 657 mmHg 16%
    17:00 +15°C° 0 mm 1 mps 656 mmHg 19%
    18:00 +13°C° 0 mm 2 mps 656 mmHg 19%
    19:00 +12°C° 0 mm 2 mps 657 mmHg 19%
    20:00 +9°C° 0 mm 3 mps 657 mmHg 19%
    21:00 +9°C° 0 mm 3 mps 657 mmHg 18%
    22:00 +9°C° 0 mm 3 mps 657 mmHg 18%
    23:00 +8°C° 0 mm 3 mps 657 mmHg 18%
    Show more